Regional Weather Roundup
Issued by NWS Bismarck, ND

Home | Current Version | Previous Version | Text Only | Print | Product List | Glossary On
Versions: 1 2 3 4 5 6 7 8 9 10 11 12 13 14 15 16 17 18 19 20 21 22 23 24 25 26 27 28 29 30 31 32 33 34 35 36 37 38 39 40 41 42 43 44 45 46 47 48 49 50
000
ASUS43 KBIS 252002
RWRBIS

NWR BROADCAST TEXT
NATIONAL WEATHER SERVICE BISMARCK ND
300 PM CDT SUN SEP 25 2016

NOTE: "FAIR" INDICATES FEW OR NO CLOUDS BELOW 12,000 FEET WITH NO
SIGNIFICANT WEATHER AND/OR OBSTRUCTIONS TO VISIBILITY.


CITY           SKY/WX    TMP DP  RH WIND       PRES   REMARKS
WILLISTON      SUNNY     64  33  31 NW29G37   30.19S
MINOT          MOSUNNY   63  36  36 W36G47    30.04S
MINOT AFB      MOSUNNY   62  37  40 NW36G45   30.02R
BISMARCK       PTSUNNY   62  33  33 NW23G38   30.11S
DICKINSON      SUNNY     60  28  29 NW25G38   30.18F
GARRISON         N/A     62  35  36 NW36G44   30.08F
HETTINGER ARPT MOSUNNY   62  33  33 NW26G38   30.23F
JAMESTOWN      PTSUNNY   60  40  47 NW28G41   29.97R
CARRINGTON     MOCLDY    63  37  39 NW28G41   29.99R
HAZEN          FAIR      61  34  36 NW28G41   30.14F
RUGBY          FAIR      63  36  36 NW37G46   29.95S
STANLEY        FAIR      59  34  38 NW28G38   30.14S
$$

CITY           SKY/WX    TMP DP  RH WIND       PRES   REMARKS
GRAND FORKS    CLOUDY    57  48  72 NW24G38   29.82R
GRAND FORKS AF LGT RAIN  56  47  71 NW31G39   29.84R
DEVILS LAKE    CLOUDY    57  40  52 NW32G40   29.90S
FARGO          CLOUDY    60  46  59 NW26G39   29.88R
CANDO          FAIR      57  41  54 NW26G37   29.94R
CAVALIER       LGT RAIN  54  50  87 NW18G28   29.80R
GRAFTON        DRIZZLE   54  52  94 NW24G36   29.82R
GWINNER        MOCLDY    63  43  48 NW26G39   29.97R
LANGDON        CLOUDY    50  48  93 NW24G33   29.87R
ROLLA          FAIR      55  39  54 NW31G38   29.93R
WALHALLA       FAIR      52  48  87 NW22G31   29.81R
$$

CITY           SKY/WX    TMP DP  RH WIND       PRES   REMARKS
ABERDEEN       PTSUNNY   65  38  36 NW25G38   30.04R
MOBRIDGE       MOSUNNY   66  35  31 NW22G38   30.11S
BUFFALO          N/A     63  32  31 NW32G39   30.21S
RAPID CITY     SUNNY     64  28  25 NW22G37   30.31F
GLASGOW        SUNNY     65  34  31 W15G28    30.25F
SIDNEY         SUNNY     65  32  29 NW28      30.21F
WOLF POINT     SUNNY     67  37  33 W23G29    30.24F
GLENDIVE       MOSUNNY   63  36  36 W17       30.27F
MILES CITY     SUNNY     64  38  38 W16G24    30.30F
BAKER          SUNNY     60  35  39 NW22G30   30.29F
$$

CITY           SKY/WX    TMP DP  RH WIND       PRES   REMARKS
BILLINGS       MOSUNNY   65  31  28 W15G22    30.34F
GREAT FALLS    SUNNY     65  34  31 SW16G25   30.30F
$$





USA.gov is the U.S. government's official web portal to all federal, state and local government web resources and services.